Weather History for Telfer, WE

Change the Weather History Date:

Friday, November 16, 2012

  Actual Average Record
Temperature  
Mean Temperature 96 °F -  
Max Temperature 109 °F - - ()
Min Temperature 82 °F - - ()
Cooling Degree Days 30    
Growing Degree Days 46 (Base 50)    
Moisture  
Dew Point 56 °F    
Average Humidity 27    
Maximum Humidity 51    
Minimum Humidity 6    
Precipitation  
Precipitation 0.02 in - - ()
Sea Level Pressure  
Sea Level Pressure 29.75 in    
Wind  
Wind Speed 8 mph ()    
Max Wind Speed 29 mph    
Max Gust Speed 71 mph    
T = Trace of Precipitation, MM = Missing Value Source: Averaged Metar Reports

Daily Weather History Graph

Daily Weather History Graph

Search for Another Location

Airport:

Trip Planner

Search our weather history database for the weather conditions in past years. The results will help you decide how hot, cold, wet, or windy it might be!

Date:

Astronomy

Nov. 16, 2012 Rise Set
Actual Time 5:00 AM AWST 6:11 PM AWST
Civil Twilight 4:36 AM AWST 6:35 PM AWST
Nautical Twilight 4:08 AM AWST 7:03 PM AWST
Astronomical Twilight 3:39 AM AWST 7:32 PM AWST
Moon 7:03 AM AWST (11/16) 8:45 PM AWST (11/16)
Length of Visible Light 13h 58m
Length of Day
13h 10m
Waxing Crescent, 7% of the Moon is Illuminated
Nov 16
Waxing Crescent
Nov 20
First Quarter
Nov 28
Full
Dec 6
Last Quarter
Dec 13
New

Hourly Weather History & Observations

Time (AWST) Temp. Heat Index Dew Point Humidity Pressure Visibility Wind Dir Wind Speed Gust Speed Precip Events Conditions
12:00 AM 91 °F - 49 °F 15% 29.73 in - WSW 4.6 mph - -  
12:00 AM 91.4 °F - 50.0 °F 24% 29.77 in - WSW 4.6 mph - N/A   Unknown
1:00 AM 89.6 °F 87.7 °F 55.4 °F 31% 29.77 in - West 12.7 mph - N/A   Unknown
2:00 AM 88 °F - 57 °F 24% 29.70 in - West 8.1 mph - -  
2:00 AM 87.8 °F 86.5 °F 57.2 °F 35% 29.77 in - West 8.1 mph - N/A   Unknown
3:00 AM 85 °F - 58 °F 30% 29.72 in - West 6.9 mph - -  
3:00 AM 86.0 °F 85.4 °F 59.0 °F 40% 29.77 in - West 6.9 mph - N/A   Unknown
4:00 AM 84.2 °F 83.8 °F 59.0 °F 42% 29.77 in - West 5.8 mph - N/A   Unknown
5:00 AM 82 °F - 60 °F 37% 29.74 in - NNW 6.9 mph - -  
5:00 AM 82.4 °F 82.9 °F 60.8 °F 48% 29.80 in - NNW 6.9 mph - N/A   Unknown
6:00 AM 83 °F - 62 °F 38% 29.78 in - North 8.1 mph - -  
6:00 AM 84.2 °F 84.4 °F 60.8 °F 45% 29.83 in - North 8.1 mph - N/A   Unknown
7:00 AM 84.2 °F 85.6 °F 64.4 °F 51% 29.86 in - North 10.4 mph - N/A   Unknown
8:00 AM 88 °F - 63 °F 33% 29.80 in - NNW 10.4 mph - -  
8:00 AM 87.8 °F 88.5 °F 62.6 °F 43% 29.86 in - NNW 10.4 mph - N/A   Unknown
9:00 AM 92 °F - 64 °F 29% 29.79 in - NNW 10.4 mph - -  
9:00 AM 91.4 °F 93.2 °F 64.4 °F 41% 29.83 in - NNW 10.4 mph - N/A   Unknown
10:00 AM 95.0 °F 96.0 °F 62.6 °F 34% 29.83 in - North 10.4 mph - N/A   Unknown
11:00 AM 99 °F - 62 °F 20% 29.74 in - NW 8.1 mph - -  
11:00 AM 98.6 °F 99.4 °F 60.8 °F 29% 29.80 in - NW 8.1 mph - N/A   Unknown
12:00 PM 104 °F - 57 °F 14% 29.72 in - NW 8.1 mph - -  
12:00 PM 104.0 °F 103.4 °F 57.2 °F 21% 29.77 in - NW 8.1 mph - N/A   Unknown
1:00 PM 105.8 °F - 51.8 °F 17% 29.74 in - North 8.1 mph - N/A   Unknown
2:00 PM 108 °F - 50 °F 8% 29.66 in - North 4.6 mph - -  
2:00 PM 107.6 °F - 50.0 °F 15% 29.71 in - North 4.6 mph - N/A   Unknown
3:00 PM 108 °F - 45 °F 6% 29.63 in - SSE 5.8 mph - -  
3:00 PM 107.6 °F - 44.6 °F 12% 29.68 in - SSE 5.8 mph - N/A   Unknown
4:00 PM 107.6 °F - 44.6 °F 12% 29.68 in - East 4.6 mph - N/A   Unknown
5:00 PM 106 °F - 45 °F 7% 29.61 in - West 5.8 mph - -  
5:00 PM 105.8 °F - 44.6 °F 13% 29.68 in - West 5.8 mph - N/A   Unknown
6:00 PM 104 °F - 47 °F 8% 29.64 in - SSE 6.9 mph - -  
6:00 PM 104.0 °F - 46.4 °F 14% 29.68 in - SSE 6.9 mph - N/A   Unknown
6:08 PM 100.4 °F - 50.0 °F 18% 29.71 in - South 20.7 mph - N/A   Unknown
6:11 PM 98.6 °F - 51.8 °F 21% 29.71 in - South 21.9 mph 33.4 mph N/A   Unknown
6:33 PM 91.4 °F 89.9 °F 57.2 °F 31% 29.74 in - SW 24.2 mph 71.3 mph N/A   Unknown
6:34 PM 91.4 °F 89.1 °F 53.6 °F 28% 29.74 in - WSW 28.8 mph 71.3 mph N/A   Unknown
7:00 PM 95.0 °F 93.7 °F 57.2 °F 28% 29.77 in - South 9.2 mph 24.2 mph N/A   Unknown
8:00 PM 94 °F - 53 °F 16% 29.70 in - NNE 12.7 mph - -  
8:00 PM 95.0 °F 92.7 °F 53.6 °F 25% 29.74 in - NNE 12.7 mph - N/A   Unknown
9:00 PM 88 °F - 60 °F 29% 29.73 in - NW 10.4 mph - -  
9:00 PM 87.8 °F 87.6 °F 60.8 °F 40% 29.77 in - NW 10.4 mph - N/A   Unknown
10:00 PM 86.0 °F 86.1 °F 60.8 °F 43% 29.80 in - North 9.2 mph - N/A   Unknown
11:00 PM 86 °F - 59 °F 30% 29.74 in - NNW 1.2 mph - -  
11:00 PM 86.0 °F 85.4 °F 59.0 °F 40% 29.80 in - NNW 1.2 mph - N/A   Unknown